TVS4428 GVAC-GMME

Flight info

Callsign TVS4428
Flight time 3h 4m
Altitude 37000
Route PINPO UW11 GUNET N857 LZR N871 KORAL UG5 SAK DCT ESALA
Aircraft B738/M-SDE2E3FGHIRWXY/LB1

Departure

Time 2026-04-22 15:11
Airport Amílcar Cabral International Airport (GVAC)

Arrival

Time 2026-04-22 18:15
Airport Rabat-Salé Airport (GMME)
Time Latitude Longitude Altitude Speed Heading
2026-04-22 14:57 16.73430 -22.94510 200 ft 0 kts 90°
2026-04-22 15:02 16.73430 -22.94511 200 ft 2 kts 90°
2026-04-22 15:02 16.73430 -22.94537 205 ft 4 kts 90°
2026-04-22 15:02 16.73430 -22.94560 213 ft 4 kts 94°
2026-04-22 15:02 16.73437 -22.94585 213 ft 4 kts 136°
2026-04-22 15:03 16.73459 -22.94596 209 ft 4 kts 177°
2026-04-22 15:03 16.73474 -22.94596 211 ft 1 kts 178°
2026-04-22 15:05 16.73472 -22.94596 212 ft 1 kts 178°
2026-04-22 15:05 16.73456 -22.94596 209 ft 4 kts 179°
2026-04-22 15:05 16.73419 -22.94596 203 ft 7 kts 179°
2026-04-22 15:05 16.73363 -22.94595 199 ft 9 kts 179°
2026-04-22 15:06 16.73289 -22.94595 204 ft 12 kts 180°
2026-04-22 15:06 16.73201 -22.94594 210 ft 13 kts 179°
2026-04-22 15:06 16.73113 -22.94594 199 ft 12 kts 182°
2026-04-22 15:06 16.73056 -22.94654 203 ft 12 kts 239°
2026-04-22 15:07 16.72987 -22.94691 202 ft 13 kts 180°
2026-04-22 15:07 16.72876 -22.94690 197 ft 18 kts 180°
2026-04-22 15:07 16.72755 -22.94690 185 ft 17 kts 180°
2026-04-22 15:07 16.72639 -22.94689 185 ft 16 kts 179°
2026-04-22 15:08 16.72527 -22.94688 182 ft 16 kts 179°
2026-04-22 15:08 16.72424 -22.94694 182 ft 12 kts 208°
2026-04-22 15:08 16.72407 -22.94776 183 ft 12 kts 269°
2026-04-22 15:08 16.72410 -22.94860 185 ft 12 kts 287°
2026-04-22 15:09 16.72457 -22.94886 186 ft 0 kts 359°
2026-04-22 15:09 16.72463 -22.94886 186 ft 4 kts 359°
2026-04-22 15:10 16.72530 -22.94886 185 ft 24 kts 359°
2026-04-22 15:10 16.72935 -22.94889 200 ft 91 kts 360°
2026-04-22 15:10 16.73774 -22.94895 187 ft 148 kts 359°
2026-04-22 15:10 16.74945 -22.94912 378 ft 178 kts
2026-04-22 15:11 16.76173 -22.94891 1215 ft 175 kts
2026-04-22 15:11 16.77374 -22.94808 1961 ft 172 kts
2026-04-22 15:11 16.78619 -22.94668 2210 ft 194 kts
2026-04-22 15:11 16.79934 -22.94493 2877 ft 182 kts
2026-04-22 15:12 16.81170 -22.94086 3299 ft 200 kts 31°
2026-04-22 15:12 16.82198 -22.93000 3492 ft 225 kts 58°
2026-04-22 15:12 16.82761 -22.91391 3726 ft 247 kts 76°
2026-04-22 15:12 16.83109 -22.89592 4141 ft 257 kts 77°
2026-04-22 15:13 16.83452 -22.87721 4565 ft 267 kts 78°
2026-04-22 15:13 16.83810 -22.85796 5021 ft 273 kts 78°
2026-04-22 15:13 16.84182 -22.83835 5529 ft 278 kts 78°
2026-04-22 15:13 16.84666 -22.81866 5995 ft 284 kts 64°
2026-04-22 15:14 16.85756 -22.80123 6330 ft 294 kts 47°
2026-04-22 15:14 16.87181 -22.78520 6610 ft 306 kts 43°
2026-04-22 15:14 16.88696 -22.76926 7089 ft 311 kts 42°
2026-04-22 15:14 16.90240 -22.75322 7616 ft 315 kts 42°
2026-04-22 15:15 16.91813 -22.73703 8180 ft 318 kts 42°
2026-04-22 15:15 16.93404 -22.72079 8755 ft 321 kts 42°
2026-04-22 15:15 16.95014 -22.70447 9349 ft 324 kts 42°
2026-04-22 15:15 16.96650 -22.68803 9940 ft 329 kts 42°
2026-04-22 15:16 16.98309 -22.67121 10329 ft 340 kts 43°
2026-04-22 15:16 17.00042 -22.65327 10470 ft 360 kts 44°
2026-04-22 15:16 17.01847 -22.63420 10613 ft 378 kts 44°
2026-04-22 15:16 17.03713 -22.61417 10898 ft 389 kts 45°
2026-04-22 15:17 17.05574 -22.59397 11398 ft 391 kts 45°
2026-04-22 15:17 17.07453 -22.57344 12019 ft 391 kts 45°
2026-04-22 15:17 17.09306 -22.55315 12587 ft 393 kts 45°
2026-04-22 15:17 17.11228 -22.53206 13181 ft 396 kts 45°
2026-04-22 15:18 17.13132 -22.51115 13787 ft 398 kts 44°
2026-04-22 15:18 17.15049 -22.49009 14317 ft 400 kts 44°
2026-04-22 15:18 17.16982 -22.46886 14840 ft 403 kts 44°
2026-04-22 15:18 17.18923 -22.44754 15342 ft 407 kts 44°
2026-04-22 15:19 17.20852 -22.42633 15840 ft 410 kts 44°
2026-04-22 15:19 17.22828 -22.40460 16340 ft 413 kts 44°
2026-04-22 15:19 17.24818 -22.38270 16829 ft 416 kts 44°
2026-04-22 15:19 17.26824 -22.36063 17316 ft 419 kts 44°
2026-04-22 15:20 17.28157 -22.34596 17630 ft 421 kts 44°
2026-04-22 15:20 17.30873 -22.31607 18259 ft 425 kts 44°
2026-04-22 15:20 17.32918 -22.29354 18651 ft 429 kts 44°
2026-04-22 15:20 17.34981 -22.27082 19023 ft 432 kts 44°
2026-04-22 15:21 17.37057 -22.24794 19396 ft 435 kts 44°
2026-04-22 15:21 17.39148 -22.22489 19769 ft 438 kts 44°
2026-04-22 15:21 17.41255 -22.20165 20139 ft 442 kts 44°
2026-04-22 15:21 17.43378 -22.17823 20503 ft 445 kts 44°
2026-04-22 15:22 17.45512 -22.15467 20869 ft 448 kts 44°
2026-04-22 15:22 17.47667 -22.13088 21237 ft 451 kts 44°
2026-04-22 15:22 17.49808 -22.10724 21586 ft 454 kts 43°
2026-04-22 15:22 17.51987 -22.08316 21930 ft 457 kts 43°
2026-04-22 15:23 17.54183 -22.05888 22271 ft 460 kts 43°
2026-04-22 15:23 17.56392 -22.03445 22604 ft 463 kts 43°
2026-04-22 15:23 17.58612 -22.00989 22935 ft 466 kts 43°
2026-04-22 15:23 17.60846 -21.98515 23261 ft 468 kts 43°
2026-04-22 15:24 17.63100 -21.96019 23567 ft 471 kts 43°
2026-04-22 15:24 17.65362 -21.93514 23825 ft 474 kts 43°
2026-04-22 15:24 17.67630 -21.90995 24105 ft 476 kts 43°
2026-04-22 15:24 17.69908 -21.88460 24412 ft 477 kts 43°
2026-04-22 15:25 17.72183 -21.85925 24698 ft 478 kts 43°
2026-04-22 15:25 17.74467 -21.83379 24964 ft 481 kts 43°
2026-04-22 15:25 17.76766 -21.80814 25239 ft 483 kts 43°
2026-04-22 15:25 17.79041 -21.78273 25485 ft 485 kts 43°
2026-04-22 15:26 17.81385 -21.75655 25743 ft 487 kts 43°
2026-04-22 15:26 17.83679 -21.73094 26004 ft 488 kts 43°
2026-04-22 15:26 17.86012 -21.70487 26261 ft 490 kts 42°
2026-04-22 15:26 17.88350 -21.67875 26507 ft 492 kts 42°
2026-04-22 15:27 17.90697 -21.65251 26743 ft 494 kts 42°
2026-04-22 15:27 17.93052 -21.62617 26989 ft 496 kts 42°
2026-04-22 15:27 17.95416 -21.59971 27220 ft 497 kts 42°
2026-04-22 15:27 17.97792 -21.57311 27457 ft 499 kts 42°
2026-04-22 15:28 18.00168 -21.54650 27690 ft 501 kts 42°
2026-04-22 15:28 18.02556 -21.51974 27921 ft 502 kts 42°
2026-04-22 15:28 18.04921 -21.49323 28144 ft 504 kts 42°
2026-04-22 15:28 18.07326 -21.46625 28364 ft 506 kts 42°
2026-04-22 15:29 18.09739 -21.43919 28586 ft 508 kts 42°
2026-04-22 15:29 18.12157 -21.41206 28799 ft 510 kts 42°
2026-04-22 15:29 18.14586 -21.38477 29006 ft 511 kts 42°
2026-04-22 15:30 18.18638 -21.33924 29346 ft 514 kts 42°
2026-04-22 15:30 18.21915 -21.30240 29598 ft 516 kts 42°
2026-04-22 15:30 18.24371 -21.27477 29787 ft 518 kts 42°
2026-04-22 15:30 18.26837 -21.24702 29969 ft 519 kts 42°
2026-04-22 15:31 18.28474 -21.22859 30114 ft 519 kts 42°
2026-04-22 15:31 18.30941 -21.20079 30355 ft 519 kts 42°
2026-04-22 15:31 18.33399 -21.17308 30598 ft 518 kts 42°
2026-04-22 15:31 18.35860 -21.14533 30801 ft 518 kts 42°
2026-04-22 15:32 18.38333 -21.11744 30992 ft 519 kts 42°
2026-04-22 15:32 18.40765 -21.08998 31210 ft 519 kts 42°
2026-04-22 15:32 18.43224 -21.06223 31447 ft 519 kts 42°
2026-04-22 15:32 18.45690 -21.03440 31657 ft 519 kts 43°
2026-04-22 15:33 18.48153 -21.00658 31862 ft 519 kts 43°
2026-04-22 15:33 18.50621 -20.97869 32089 ft 519 kts 43°
2026-04-22 15:33 18.53087 -20.95080 32313 ft 519 kts 43°
2026-04-22 15:33 18.55551 -20.92293 32518 ft 520 kts 43°
2026-04-22 15:34 18.58017 -20.89503 32725 ft 520 kts 43°
2026-04-22 15:34 18.60480 -20.86713 32958 ft 519 kts 43°
2026-04-22 15:34 18.62949 -20.83916 33193 ft 520 kts 43°
2026-04-22 15:34 18.65382 -20.81159 33416 ft 520 kts 43°
2026-04-22 15:35 18.67841 -20.78370 33634 ft 520 kts 43°
2026-04-22 15:35 18.70305 -20.75574 33848 ft 520 kts 43°
2026-04-22 15:35 18.72772 -20.72774 34054 ft 520 kts 43°
2026-04-22 15:35 18.75238 -20.69974 34243 ft 520 kts 43°
2026-04-22 15:36 18.77698 -20.67179 34438 ft 519 kts 43°
2026-04-22 15:36 18.80157 -20.64384 34630 ft 519 kts 43°
2026-04-22 15:36 18.82579 -20.61630 34821 ft 518 kts 43°
2026-04-22 15:36 18.85065 -20.58803 35003 ft 518 kts 43°
2026-04-22 15:37 18.87482 -20.56054 35185 ft 518 kts 43°
2026-04-22 15:37 18.89933 -20.53263 35361 ft 518 kts 43°
2026-04-22 15:37 18.92389 -20.50466 35538 ft 518 kts 43°
2026-04-22 15:37 18.94836 -20.47677 35713 ft 517 kts 44°
2026-04-22 15:38 18.97283 -20.44887 35887 ft 517 kts 44°
2026-04-22 15:38 19.02174 -20.39307 36199 ft 518 kts 44°
2026-04-22 15:38 19.04630 -20.36503 36350 ft 518 kts 44°
2026-04-22 15:39 19.07045 -20.33746 36518 ft 517 kts 44°
2026-04-22 15:39 19.09489 -20.30951 36681 ft 517 kts 44°
2026-04-22 15:39 19.11937 -20.28151 36844 ft 517 kts 44°
2026-04-22 15:39 19.14381 -20.25355 36985 ft 517 kts 44°
2026-04-22 15:40 19.19260 -20.19770 36999 ft 519 kts 44°
2026-04-22 15:40 19.24163 -20.14152 37001 ft 517 kts 44°
2026-04-22 15:41 19.29008 -20.08595 36996 ft 516 kts 44°
2026-04-22 15:41 19.33872 -20.03011 36996 ft 515 kts 44°
2026-04-22 15:42 19.38726 -19.97434 36995 ft 514 kts 44°
2026-04-22 15:42 19.43539 -19.91898 37000 ft 514 kts 44°
2026-04-22 15:43 19.48382 -19.86324 37000 ft 514 kts 44°
2026-04-22 15:43 19.53229 -19.80737 36996 ft 515 kts 44°
2026-04-22 15:44 19.58115 -19.75178 36995 ft 514 kts 39°
2026-04-22 15:44 19.63789 -19.70731 36998 ft 503 kts 24°
2026-04-22 15:45 19.69925 -19.67132 36996 ft 504 kts 22°
2026-04-22 15:45 19.76054 -19.63564 36998 ft 506 kts 23°
2026-04-22 15:46 19.82223 -19.59904 36993 ft 508 kts 24°
2026-04-22 15:46 19.88393 -19.56200 36994 ft 509 kts 24°
2026-04-22 15:47 19.94569 -19.52482 36999 ft 510 kts 24°
2026-04-22 15:47 20.00760 -19.48756 36993 ft 511 kts 24°
2026-04-22 15:48 20.06915 -19.45050 36989 ft 511 kts 24°
2026-04-22 15:48 20.13109 -19.41318 36992 ft 511 kts 24°
2026-04-22 15:49 20.19300 -19.37584 36994 ft 510 kts 24°
2026-04-22 15:49 20.25471 -19.33859 36989 ft 509 kts 24°
2026-04-22 15:50 20.31598 -19.30158 36993 ft 509 kts 23°
2026-04-22 15:50 20.37747 -19.26440 36992 ft 508 kts 23°
2026-04-22 15:51 20.43894 -19.22720 36987 ft 507 kts 23°
2026-04-22 15:51 20.50032 -19.19002 36990 ft 506 kts 23°
2026-04-22 15:52 20.56155 -19.15290 36996 ft 506 kts 23°
2026-04-22 15:52 20.62280 -19.11572 36999 ft 506 kts 23°
2026-04-22 15:53 20.68375 -19.07870 36994 ft 507 kts 23°
2026-04-22 15:53 20.74517 -19.04136 37000 ft 508 kts 23°
2026-04-22 15:54 20.80663 -19.00395 36994 ft 509 kts 23°
2026-04-22 15:54 20.86825 -18.96642 36995 ft 510 kts 23°
2026-04-22 15:55 20.92961 -18.92900 36995 ft 511 kts 23°
2026-04-22 15:55 20.99143 -18.89127 36996 ft 512 kts 23°
2026-04-22 15:56 21.05349 -18.85335 36995 ft 512 kts 23°
2026-04-22 15:56 21.11511 -18.81566 36987 ft 513 kts 23°
2026-04-22 15:57 21.17710 -18.77769 36995 ft 513 kts 23°
2026-04-22 15:57 21.23912 -18.73969 36988 ft 513 kts 23°
2026-04-22 15:58 21.30110 -18.70167 36986 ft 513 kts 22°
2026-04-22 15:58 21.36314 -18.66359 36988 ft 514 kts 22°
2026-04-22 15:59 21.42521 -18.62546 36986 ft 514 kts 22°
2026-04-22 15:59 21.48730 -18.58726 36989 ft 514 kts 22°
2026-04-22 16:00 21.54936 -18.54903 36982 ft 514 kts 22°
2026-04-22 16:00 21.61115 -18.51094 36984 ft 514 kts 22°
2026-04-22 16:01 21.67312 -18.47270 36982 ft 514 kts 22°
2026-04-22 16:01 21.73510 -18.43442 36983 ft 514 kts 22°
2026-04-22 16:02 21.79709 -18.39606 36977 ft 514 kts 22°
2026-04-22 16:02 21.85928 -18.35759 36991 ft 516 kts 22°
2026-04-22 16:03 21.92140 -18.31914 36996 ft 519 kts 22°
2026-04-22 16:03 21.98417 -18.28023 36979 ft 521 kts 22°
2026-04-22 16:04 22.04714 -18.24111 36988 ft 522 kts 22°
2026-04-22 16:04 22.11014 -18.20194 36977 ft 522 kts 22°
2026-04-22 16:05 22.17252 -18.16311 36980 ft 520 kts 22°
2026-04-22 16:05 22.23508 -18.12416 36979 ft 518 kts 22°
2026-04-22 16:06 22.29748 -18.08524 36985 ft 517 kts 22°
2026-04-22 16:06 22.35968 -18.04642 36981 ft 515 kts 22°
2026-04-22 16:07 22.42170 -18.00767 36983 ft 513 kts 21°
2026-04-22 16:07 22.48312 -17.96927 36975 ft 512 kts 21°
2026-04-22 16:08 22.54487 -17.93063 36989 ft 512 kts 21°
2026-04-22 16:08 22.60622 -17.89219 36982 ft 512 kts 21°
2026-04-22 16:09 22.66787 -17.85352 36984 ft 512 kts 21°
2026-04-22 16:09 22.72958 -17.81477 36981 ft 512 kts 21°
2026-04-22 16:10 22.79139 -17.77592 36986 ft 513 kts 21°
2026-04-22 16:10 22.85321 -17.73702 36982 ft 514 kts 21°
2026-04-22 16:11 22.91470 -17.69827 36988 ft 514 kts 21°
2026-04-22 16:11 22.97662 -17.65921 36984 ft 514 kts 21°
2026-04-22 16:12 23.03855 -17.62012 36986 ft 514 kts 21°
2026-04-22 16:12 23.10043 -17.58101 36976 ft 514 kts 21°
2026-04-22 16:13 23.16235 -17.54182 36985 ft 514 kts 20°
2026-04-22 16:13 23.22369 -17.50296 36976 ft 514 kts 20°
2026-04-22 16:14 23.28548 -17.46378 36981 ft 513 kts 20°
2026-04-22 16:14 23.34716 -17.42463 36978 ft 512 kts 20°
2026-04-22 16:15 23.40869 -17.38553 36988 ft 511 kts 20°
2026-04-22 16:15 23.47010 -17.34646 36980 ft 510 kts 20°
2026-04-22 16:16 23.53140 -17.30743 36984 ft 509 kts 20°
2026-04-22 16:16 23.59223 -17.26865 36973 ft 509 kts 20°
2026-04-22 16:17 23.65345 -17.22958 36993 ft 509 kts 19°
2026-04-22 16:17 23.71458 -17.19053 36981 ft 509 kts 19°
2026-04-22 16:18 23.77538 -17.15165 36987 ft 509 kts 19°
2026-04-22 16:18 23.83650 -17.11251 36984 ft 509 kts 19°
2026-04-22 16:19 23.89761 -17.07334 36980 ft 509 kts 19°
2026-04-22 16:19 23.95873 -17.03413 36979 ft 509 kts 19°
2026-04-22 16:20 24.01989 -16.99483 36989 ft 509 kts 19°
2026-04-22 16:20 24.08063 -16.95576 36983 ft 509 kts 19°
2026-04-22 16:21 24.14165 -16.91648 36988 ft 509 kts 19°
2026-04-22 16:21 24.20266 -16.87715 36980 ft 509 kts 19°
2026-04-22 16:22 24.29416 -16.81809 36975 ft 508 kts 19°
2026-04-22 16:23 24.37531 -16.76561 36984 ft 507 kts 19°
2026-04-22 16:23 24.43572 -16.72650 36980 ft 507 kts 19°
2026-04-22 16:24 24.52687 -16.66739 36981 ft 506 kts 19°
2026-04-22 16:25 24.58745 -16.62806 36982 ft 505 kts 19°
2026-04-22 16:25 24.67826 -16.56903 36976 ft 504 kts 19°
2026-04-22 16:26 24.73821 -16.53000 36987 ft 504 kts 19°
2026-04-22 16:26 24.79859 -16.49065 36981 ft 503 kts 19°
2026-04-22 16:27 24.85879 -16.45136 36987 ft 503 kts 19°
2026-04-22 16:27 24.91902 -16.41200 36981 ft 503 kts 19°
2026-04-22 16:28 24.97911 -16.37270 36988 ft 502 kts 19°
2026-04-22 16:28 25.03895 -16.33351 36984 ft 502 kts 19°
2026-04-22 16:29 25.09894 -16.29417 36997 ft 501 kts 19°
2026-04-22 16:29 25.15890 -16.25480 36979 ft 501 kts 19°
2026-04-22 16:30 25.21871 -16.21548 36990 ft 499 kts 19°
2026-04-22 16:30 25.27847 -16.17616 36982 ft 499 kts 19°
2026-04-22 16:31 25.33808 -16.13688 36988 ft 498 kts 19°
2026-04-22 16:31 25.39760 -16.09762 36978 ft 498 kts 19°
2026-04-22 16:32 25.45671 -16.05858 36989 ft 497 kts 20°
2026-04-22 16:32 25.51609 -16.01931 36976 ft 496 kts 20°
2026-04-22 16:33 25.57538 -15.98004 36991 ft 495 kts 20°
2026-04-22 16:33 25.63449 -15.94086 36981 ft 495 kts 20°
2026-04-22 16:34 25.69353 -15.90169 36988 ft 494 kts 20°
2026-04-22 16:34 25.75212 -15.86278 36981 ft 493 kts 20°
2026-04-22 16:35 25.81099 -15.82362 36990 ft 492 kts 20°
2026-04-22 16:35 25.86974 -15.78451 36987 ft 491 kts 20°
2026-04-22 16:36 25.92806 -15.74561 36993 ft 491 kts 20°
2026-04-22 16:36 25.98662 -15.70653 36978 ft 491 kts 20°
2026-04-22 16:37 26.04520 -15.66739 36989 ft 490 kts 21°
2026-04-22 16:37 26.10368 -15.62827 36989 ft 490 kts 21°
2026-04-22 16:38 26.16174 -15.58939 36992 ft 490 kts 21°
2026-04-22 16:38 26.22013 -15.55022 36981 ft 489 kts 21°
2026-04-22 16:39 26.27850 -15.51103 36991 ft 489 kts 21°
2026-04-22 16:39 26.33645 -15.47207 36983 ft 488 kts 21°
2026-04-22 16:40 26.39460 -15.43293 36992 ft 487 kts 21°
2026-04-22 16:41 26.48170 -15.37423 36992 ft 485 kts 21°
2026-04-22 16:41 26.53945 -15.33523 36982 ft 484 kts 21°
2026-04-22 16:42 26.59671 -15.29654 36988 ft 483 kts 21°
2026-04-22 16:42 26.65421 -15.25763 36990 ft 482 kts 22°
2026-04-22 16:43 26.71154 -15.21879 36994 ft 481 kts 22°
2026-04-22 16:43 26.76845 -15.18022 36980 ft 480 kts 22°
2026-04-22 16:44 26.82556 -15.14149 36989 ft 479 kts 22°
2026-04-22 16:44 26.88250 -15.10279 36983 ft 477 kts 22°
2026-04-22 16:45 26.93923 -15.06419 36991 ft 476 kts 22°
2026-04-22 16:45 26.99542 -15.02590 36985 ft 474 kts 22°
2026-04-22 16:46 27.05182 -14.98745 36988 ft 473 kts 22°
2026-04-22 16:46 27.10807 -14.94904 36980 ft 472 kts 22°
2026-04-22 16:47 27.16417 -14.91069 36986 ft 471 kts 22°
2026-04-22 16:47 27.22005 -14.87246 36985 ft 470 kts 22°
2026-04-22 16:48 27.27552 -14.83446 36983 ft 469 kts 23°
2026-04-22 16:48 27.33118 -14.79627 36978 ft 468 kts 23°
2026-04-22 16:49 27.38664 -14.75817 36987 ft 466 kts 23°
2026-04-22 16:49 27.44200 -14.72011 36981 ft 465 kts 23°
2026-04-22 16:50 27.49729 -14.68204 36990 ft 464 kts 23°
2026-04-22 16:50 27.55205 -14.64430 36984 ft 463 kts 23°
2026-04-22 16:51 27.60701 -14.60638 36987 ft 462 kts 24°
2026-04-22 16:51 27.66176 -14.56856 36980 ft 461 kts 24°
2026-04-22 16:52 27.71645 -14.53072 36984 ft 460 kts 24°
2026-04-22 16:52 27.77097 -14.49296 36973 ft 459 kts 24°
2026-04-22 16:53 27.82537 -14.45525 36985 ft 457 kts 24°
2026-04-22 16:53 27.87952 -14.41766 36972 ft 456 kts 24°
2026-04-22 16:54 27.93317 -14.38037 36986 ft 454 kts 24°
2026-04-22 16:54 27.98697 -14.34293 36974 ft 453 kts 24°
2026-04-22 16:55 28.04060 -14.30557 36985 ft 452 kts 24°
2026-04-22 16:55 28.09409 -14.26826 36974 ft 451 kts 24°
2026-04-22 16:56 28.14748 -14.23098 36982 ft 450 kts 25°
2026-04-22 16:56 28.20075 -14.19374 36976 ft 449 kts 25°
2026-04-22 16:57 28.25385 -14.15656 36956 ft 448 kts 25°
2026-04-22 16:57 28.30586 -14.12009 36977 ft 446 kts 25°
2026-04-22 16:58 28.34973 -14.08933 36988 ft 446 kts 25°
2026-04-22 16:58 28.41109 -14.04626 36976 ft 446 kts 25°
2026-04-22 16:59 28.46398 -14.00907 36982 ft 446 kts 25°
2026-04-22 16:59 28.51669 -13.97194 36973 ft 445 kts 26°
2026-04-22 17:00 28.56932 -13.93482 36982 ft 444 kts 26°
2026-04-22 17:00 28.64817 -13.87915 36975 ft 443 kts 26°
2026-04-22 17:01 28.70019 -13.84236 36975 ft 442 kts 26°
2026-04-22 17:01 28.75233 -13.80544 36978 ft 440 kts 26°
2026-04-22 17:02 28.80413 -13.76871 36996 ft 437 kts 26°
2026-04-22 17:02 28.85558 -13.73221 36993 ft 434 kts 26°
2026-04-22 17:03 28.90679 -13.69582 36995 ft 432 kts 26°
2026-04-22 17:03 28.95771 -13.65962 36998 ft 431 kts 26°
2026-04-22 17:04 29.00873 -13.62332 37001 ft 431 kts 26°
2026-04-22 17:04 29.05974 -13.58696 36997 ft 433 kts 26°
2026-04-22 17:05 29.11101 -13.55033 36992 ft 435 kts 26°
2026-04-22 17:05 29.16084 -13.51086 36990 ft 444 kts 37°
2026-04-22 17:06 29.20129 -13.45619 37004 ft 456 kts 50°
2026-04-22 17:06 29.23733 -13.39607 36989 ft 458 kts 50°
2026-04-22 17:07 29.27343 -13.33562 36982 ft 460 kts 50°
2026-04-22 17:07 29.31007 -13.27514 36982 ft 462 kts 50°
2026-04-22 17:08 29.34693 -13.21453 36968 ft 464 kts 50°
2026-04-22 17:08 29.38392 -13.15372 36983 ft 465 kts 50°
2026-04-22 17:09 29.41467 -13.10307 36972 ft 465 kts 50°
2026-04-22 17:09 29.45767 -13.03210 36979 ft 465 kts 50°
2026-04-22 17:10 29.48835 -12.98136 36978 ft 466 kts 50°
2026-04-22 17:10 29.52526 -12.92030 36979 ft 465 kts 50°
2026-04-22 17:11 29.56209 -12.85923 36979 ft 465 kts 51°
2026-04-22 17:11 29.59892 -12.79810 36983 ft 466 kts 51°
2026-04-22 17:12 29.63579 -12.73675 36972 ft 466 kts 51°
2026-04-22 17:12 29.67243 -12.67574 36979 ft 466 kts 51°
2026-04-22 17:13 29.70936 -12.61418 36974 ft 467 kts 51°
2026-04-22 17:13 29.74624 -12.55247 36971 ft 467 kts 51°
2026-04-22 17:14 29.78304 -12.49045 36975 ft 470 kts 51°
2026-04-22 17:14 29.81965 -12.42857 36989 ft 471 kts 52°
2026-04-22 17:15 29.85667 -12.36592 36966 ft 474 kts 52°
2026-04-22 17:15 29.89383 -12.30294 36987 ft 476 kts 52°
2026-04-22 17:16 29.93112 -12.23964 36970 ft 478 kts 52°
2026-04-22 17:16 29.96826 -12.17650 36976 ft 479 kts 52°
2026-04-22 17:17 30.00574 -12.11269 36973 ft 480 kts 52°
2026-04-22 17:17 30.04336 -12.04881 36975 ft 481 kts 52°
2026-04-22 17:18 30.08126 -11.98515 36968 ft 481 kts 52°
2026-04-22 17:18 30.11888 -11.92168 36978 ft 483 kts 52°
2026-04-22 17:19 30.19443 -11.79326 36977 ft 483 kts 52°
2026-04-22 17:20 30.27023 -11.66409 36986 ft 486 kts 52°
2026-04-22 17:21 30.32734 -11.56671 36979 ft 488 kts 52°
2026-04-22 17:22 30.38434 -11.46917 36959 ft 490 kts 53°
2026-04-22 17:23 30.44142 -11.37091 36959 ft 490 kts 52°
2026-04-22 17:23 30.47949 -11.30548 36688 ft 489 kts 51°
2026-04-22 17:23 30.49853 -11.27272 36699 ft 491 kts 52°
2026-04-22 17:24 30.51761 -11.23991 36856 ft 492 kts 51°
2026-04-22 17:24 30.53679 -11.20690 36936 ft 493 kts 51°
2026-04-22 17:24 30.57534 -11.14044 36975 ft 499 kts 52°
2026-04-22 17:25 30.61403 -11.07302 36986 ft 505 kts 52°
2026-04-22 17:25 30.65339 -11.00502 36985 ft 513 kts 52°
2026-04-22 17:26 30.69346 -10.93568 36982 ft 520 kts 52°
2026-04-22 17:26 30.73396 -10.86531 36978 ft 527 kts 52°
2026-04-22 17:27 30.77486 -10.79465 36979 ft 532 kts 52°
2026-04-22 17:27 30.81606 -10.72255 36970 ft 535 kts 52°
2026-04-22 17:28 30.85719 -10.65016 36965 ft 534 kts 53°
2026-04-22 17:28 30.89767 -10.57881 36963 ft 524 kts 52°
2026-04-22 17:29 30.93803 -10.50828 36972 ft 523 kts 52°
2026-04-22 17:29 30.97832 -10.43770 36962 ft 523 kts 52°
2026-04-22 17:30 31.01862 -10.36685 36986 ft 525 kts 53°
2026-04-22 17:30 31.05889 -10.29570 36963 ft 526 kts 52°
2026-04-22 17:31 31.09888 -10.22496 36966 ft 525 kts 52°
2026-04-22 17:31 31.13909 -10.15384 36963 ft 524 kts 53°
2026-04-22 17:32 31.17920 -10.08267 36967 ft 524 kts 53°
2026-04-22 17:32 31.21920 -10.01165 36967 ft 522 kts 52°
2026-04-22 17:33 31.25908 -9.94073 36958 ft 521 kts 53°
2026-04-22 17:33 31.29881 -9.86990 36970 ft 520 kts 53°
2026-04-22 17:34 31.33812 -9.79963 36963 ft 518 kts 53°
2026-04-22 17:34 31.37758 -9.72901 36973 ft 518 kts 53°
2026-04-22 17:35 31.42305 -9.66502 36962 ft 505 kts 35°
2026-04-22 17:35 31.47749 -9.61479 36973 ft 500 kts 31°
2026-04-22 17:36 31.53274 -9.56523 36956 ft 499 kts 31°
2026-04-22 17:36 31.58752 -9.51522 36975 ft 498 kts 32°
2026-04-22 17:37 31.64200 -9.46490 36964 ft 499 kts 32°
2026-04-22 17:37 31.69643 -9.41439 36958 ft 498 kts 32°
2026-04-22 17:38 31.75083 -9.36386 36961 ft 498 kts 32°
2026-04-22 17:38 31.80521 -9.31338 36957 ft 498 kts 32°
2026-04-22 17:39 31.85952 -9.26285 36949 ft 498 kts 33°
2026-04-22 17:40 31.94091 -9.18697 36959 ft 498 kts 33°
2026-04-22 17:40 31.99477 -9.13668 36959 ft 497 kts 33°
2026-04-22 17:41 32.04905 -9.08591 36962 ft 498 kts 33°
2026-04-22 17:41 32.10316 -9.03519 36951 ft 497 kts 33°
2026-04-22 17:42 32.15727 -8.98442 36951 ft 496 kts 33°
2026-04-22 17:42 32.20230 -8.94212 36948 ft 496 kts 33°
2026-04-22 17:43 32.26490 -8.88319 36943 ft 494 kts 33°
2026-04-22 17:43 32.31858 -8.83253 36953 ft 493 kts 34°
2026-04-22 17:44 32.37220 -8.78183 36942 ft 492 kts 34°
2026-04-22 17:44 32.42487 -8.73197 36947 ft 491 kts 34°
2026-04-22 17:45 32.47794 -8.68170 36949 ft 490 kts 34°
2026-04-22 17:45 32.53112 -8.63121 36943 ft 490 kts 34°
2026-04-22 17:46 32.58442 -8.58056 36757 ft 494 kts 34°
2026-04-22 17:46 32.61140 -8.55492 36186 ft 497 kts 34°
2026-04-22 17:46 32.63826 -8.52931 35706 ft 494 kts 35°
2026-04-22 17:46 32.66497 -8.50381 35222 ft 491 kts 35°
2026-04-22 17:47 32.69146 -8.47851 34736 ft 487 kts 36°
2026-04-22 17:47 32.71789 -8.45327 34190 ft 488 kts 36°
2026-04-22 17:47 32.74429 -8.42806 33554 ft 488 kts 36°
2026-04-22 17:47 32.77079 -8.40272 32901 ft 488 kts 36°
2026-04-22 17:48 32.78828 -8.38599 32479 ft 488 kts 36°
2026-04-22 17:48 32.82333 -8.35246 31640 ft 487 kts 37°
2026-04-22 17:48 32.84999 -8.32693 31023 ft 486 kts 37°
2026-04-22 17:48 32.87632 -8.30170 30421 ft 486 kts 37°
2026-04-22 17:49 32.90267 -8.27643 29803 ft 486 kts 37°
2026-04-22 17:49 32.92895 -8.25119 29107 ft 482 kts 37°
2026-04-22 17:49 32.95497 -8.22619 28442 ft 480 kts 37°
2026-04-22 17:49 32.98095 -8.20121 27785 ft 477 kts 37°
2026-04-22 17:50 33.00662 -8.17651 27136 ft 474 kts 37°
2026-04-22 17:50 33.03228 -8.15180 26514 ft 471 kts 37°
2026-04-22 17:50 33.05770 -8.12729 25903 ft 469 kts 37°
2026-04-22 17:50 33.08296 -8.10290 25301 ft 466 kts 38°
2026-04-22 17:51 33.10809 -8.07862 24720 ft 464 kts 38°
2026-04-22 17:51 33.13276 -8.05477 24154 ft 461 kts 38°
2026-04-22 17:51 33.15761 -8.03072 23589 ft 459 kts 38°
2026-04-22 17:51 33.18236 -8.00676 22934 ft 457 kts 38°
2026-04-22 17:52 33.20691 -7.98297 22279 ft 454 kts 38°
2026-04-22 17:52 33.23145 -7.95918 21642 ft 452 kts 38°
2026-04-22 17:52 33.25571 -7.93563 21012 ft 449 kts 38°
2026-04-22 17:52 33.27990 -7.91215 20403 ft 447 kts 38°
2026-04-22 17:53 33.30393 -7.88880 19809 ft 444 kts 38°
2026-04-22 17:53 33.32786 -7.86552 19216 ft 442 kts 38°
2026-04-22 17:53 33.35161 -7.84240 18640 ft 439 kts 38°
2026-04-22 17:53 33.37524 -7.81938 18047 ft 437 kts 39°
2026-04-22 17:54 33.39873 -7.79647 17395 ft 435 kts 39°
2026-04-22 17:54 33.42209 -7.77369 16760 ft 433 kts 39°
2026-04-22 17:54 33.44530 -7.75104 16136 ft 430 kts 39°
2026-04-22 17:54 33.46763 -7.72923 15550 ft 428 kts 40°
2026-04-22 17:55 33.48307 -7.71414 15149 ft 427 kts 40°
2026-04-22 17:55 33.51378 -7.68411 14359 ft 425 kts 40°
2026-04-22 17:55 33.53664 -7.66182 13783 ft 423 kts 40°
2026-04-22 17:55 33.55953 -7.63972 13143 ft 421 kts 40°
2026-04-22 17:56 33.57460 -7.62520 12726 ft 420 kts 40°
2026-04-22 17:56 33.59737 -7.60328 12105 ft 418 kts 40°
2026-04-22 17:56 33.61982 -7.58166 11843 ft 407 kts 40°
2026-04-22 17:56 33.64855 -7.55396 11503 ft 393 kts 40°
2026-04-22 17:57 33.66285 -7.54015 11333 ft 387 kts 40°
2026-04-22 17:57 33.68356 -7.52011 11084 ft 378 kts 40°
2026-04-22 17:57 33.70380 -7.50050 10839 ft 370 kts 40°
2026-04-22 17:57 33.72367 -7.48125 10598 ft 363 kts 40°
2026-04-22 17:58 33.74294 -7.46256 10359 ft 357 kts 40°
2026-04-22 17:58 33.76211 -7.44396 10115 ft 351 kts 40°
2026-04-22 17:58 33.78089 -7.42572 9969 ft 341 kts 40°
2026-04-22 17:58 33.79905 -7.40810 9936 ft 329 kts 40°
2026-04-22 17:59 33.81675 -7.39091 9736 ft 325 kts 40°
2026-04-22 17:59 33.83422 -7.37391 9533 ft 321 kts 40°
2026-04-22 17:59 33.85148 -7.35709 9331 ft 318 kts 40°
2026-04-22 17:59 33.86848 -7.34052 9132 ft 317 kts 40°
2026-04-22 18:00 33.88566 -7.32378 8942 ft 316 kts 40°
2026-04-22 18:00 33.90275 -7.30711 8744 ft 315 kts 40°
2026-04-22 18:00 33.91974 -7.29054 8545 ft 314 kts 40°
2026-04-22 18:00 33.93618 -7.27449 8354 ft 313 kts 40°
2026-04-22 18:01 33.95307 -7.25801 8169 ft 311 kts 40°
2026-04-22 18:01 33.96985 -7.24163 7964 ft 310 kts 40°
2026-04-22 18:01 33.98656 -7.22530 7771 ft 308 kts 40°
2026-04-22 18:01 34.00315 -7.20908 7586 ft 306 kts 40°
2026-04-22 18:02 34.01944 -7.19315 7389 ft 304 kts 39°
2026-04-22 18:02 34.03399 -7.17502 7161 ft 299 kts 61°
2026-04-22 18:02 34.04118 -7.15206 6978 ft 290 kts 84°
2026-04-22 18:02 34.04277 -7.12800 6815 ft 286 kts 90°
2026-04-22 18:03 34.04368 -7.10510 6630 ft 284 kts 90°
2026-04-22 18:03 34.04469 -7.08130 6437 ft 284 kts 89°
2026-04-22 18:03 34.04578 -7.05761 6241 ft 283 kts 89°
2026-04-22 18:03 34.04692 -7.03389 6048 ft 283 kts 88°
2026-04-22 18:04 34.05207 -7.01102 5816 ft 287 kts 61°
2026-04-22 18:04 34.06511 -6.99305 5630 ft 286 kts 36°
2026-04-22 18:04 34.08152 -6.97958 5464 ft 285 kts 32°
2026-04-22 18:04 34.09817 -6.96658 5290 ft 285 kts 32°
2026-04-22 18:05 34.11486 -6.95361 5095 ft 285 kts 32°
2026-04-22 18:05 34.13148 -6.94060 4908 ft 285 kts 32°
2026-04-22 18:05 34.14802 -6.92756 4705 ft 282 kts 32°
2026-04-22 18:05 34.16436 -6.91461 4500 ft 278 kts 32°
2026-04-22 18:06 34.18045 -6.90182 4294 ft 274 kts 32°
2026-04-22 18:06 34.19628 -6.88920 4112 ft 272 kts 33°
2026-04-22 18:06 34.21211 -6.87658 4047 ft 272 kts 32°
2026-04-22 18:06 34.22792 -6.86397 4016 ft 272 kts 32°
2026-04-22 18:07 34.24367 -6.85141 4013 ft 271 kts 32°
2026-04-22 18:07 34.25944 -6.83879 4011 ft 272 kts 33°
2026-04-22 18:07 34.27520 -6.82616 4008 ft 271 kts 33°
2026-04-22 18:07 34.29071 -6.81374 3990 ft 263 kts 32°
2026-04-22 18:08 34.30447 -6.79976 3838 ft 258 kts 54°
2026-04-22 18:08 34.31103 -6.78002 3643 ft 254 kts 84°
2026-04-22 18:08 34.30935 -6.75903 3452 ft 251 kts 108°
2026-04-22 18:08 34.30184 -6.74019 3289 ft 248 kts 121°
2026-04-22 18:09 34.29282 -6.72283 3111 ft 248 kts 122°
2026-04-22 18:09 34.28354 -6.70516 3037 ft 246 kts 121°
2026-04-22 18:09 34.27456 -6.68772 3012 ft 243 kts 121°
2026-04-22 18:09 34.26569 -6.67042 3014 ft 243 kts 121°
2026-04-22 18:10 34.25681 -6.65303 3014 ft 243 kts 121°
2026-04-22 18:10 34.24755 -6.63632 2983 ft 235 kts 134°
2026-04-22 18:10 34.23391 -6.62700 2993 ft 222 kts 170°
2026-04-22 18:10 34.21891 -6.62899 2821 ft 219 kts 203°
2026-04-22 18:11 34.20559 -6.63778 2723 ft 219 kts 212°
2026-04-22 18:11 34.19272 -6.64758 2565 ft 216 kts 212°
2026-04-22 18:11 34.18027 -6.65690 2525 ft 203 kts 211°
2026-04-22 18:11 34.16865 -6.66551 2502 ft 188 kts 211°
2026-04-22 18:12 34.15778 -6.67351 2352 ft 179 kts 211°
2026-04-22 18:12 34.14731 -6.68106 2147 ft 169 kts 213°
2026-04-22 18:12 34.14068 -6.68602 1991 ft 170 kts 211°
2026-04-22 18:12 34.12722 -6.69597 1708 ft 169 kts 213°
2026-04-22 18:13 34.11719 -6.70330 1463 ft 165 kts 214°
2026-04-22 18:13 34.10739 -6.71049 1232 ft 166 kts 213°
2026-04-22 18:13 34.09749 -6.71779 1044 ft 171 kts 214°
2026-04-22 18:13 34.08730 -6.72526 768 ft 168 kts 214°
2026-04-22 18:14 34.07747 -6.73249 558 ft 167 kts 216°
2026-04-22 18:14 34.06780 -6.73954 334 ft 159 kts 213°
2026-04-22 18:14 34.05863 -6.74630 259 ft 140 kts 211°
2026-04-22 18:14 34.05157 -6.75144 259 ft 97 kts 211°
2026-04-22 18:15 34.04709 -6.75472 263 ft 54 kts 211°
2026-04-22 18:15 34.04503 -6.75613 266 ft 24 kts 201°
2026-04-22 18:15 34.04341 -6.75654 267 ft 20 kts 182°
2026-04-22 18:15 34.04223 -6.75657 268 ft 14 kts 181°
2026-04-22 18:16 34.04159 -6.75659 268 ft 2 kts 181°
2026-04-22 18:16 34.04143 -6.75659 268 ft 2 kts 178°
2026-04-22 18:16 34.04122 -6.75649 268 ft 6 kts 147°
2026-04-22 18:16 34.04093 -6.75601 268 ft 7 kts 121°
2026-04-22 18:17 34.04067 -6.75549 268 ft 7 kts 121°
2026-04-22 18:17 34.04041 -6.75498 268 ft 8 kts 121°
2026-04-22 18:17 34.04009 -6.75434 268 ft 9 kts 121°
2026-04-22 18:17 34.03975 -6.75367 268 ft 9 kts 121°
2026-04-22 18:18 34.03942 -6.75302 268 ft 9 kts 121°
2026-04-22 18:18 34.03910 -6.75239 268 ft 9 kts 121°
2026-04-22 18:18 34.03879 -6.75178 267 ft 9 kts 121°
2026-04-22 18:18 34.03848 -6.75117 267 ft 8 kts 121°
2026-04-22 18:19 34.03819 -6.75059 267 ft 8 kts 121°
2026-04-22 18:19 34.03807 -6.74996 267 ft 8 kts 81°
2026-04-22 18:19 34.03851 -6.74974 267 ft 8 kts 355°
2026-04-22 18:19 34.03872 -6.74977 267 ft 0 kts 341°
2026-04-22 18:20 34.03877 -6.74987 267 ft 2 kts 290°
2026-04-22 18:20 34.03866 -6.75005 267 ft 3 kts 220°
2026-04-22 18:20 34.03864 -6.75006 267 ft 0 kts 218°